Regional Weather Roundup
Issued by NWS

Home | Current Version | Previous Version | Graphics & Text | Print | Product List | Glossary On
Versions: 1 2 3 4 5 6 7 8 9 10 11 12 13 14 15 16 17 18 19 20 21 22 23 24 25 26 27 28 29 30 31 32 33 34 35 36 37 38 39 40 41 42 43 44 45 46 47 48 49 50
000
ASUS43 KLMK 190702
RWRKY
KENTUCKY REGIONAL WEATHER ROUNDUP
NATIONAL WEATHER SERVICE LOUISVILLE KY
300 AM EDT SAT AUG 19 2017

NOTE "FAIR" INDICATES FEW OR NO CLOUDS BELOW 12,000 FEET
WITH NO SIGNIFICANT WEATHER AND/OR OBSTRUCTIONS TO VISIBILITY.

KYZ001>023-026-027-061>063-070>075-190800-
WESTERN AND SOUTH CENTRAL KENTUCKY

CITY           SKY/WX    TMP DP  RH WIND       PRES   REMARKS
PADUCAH        CLOUDY    74  66  76 S6        29.93F
HENDERSON      CLOUDY    70  67  90 S6        29.92F
OWENSBORO      CLOUDY    72  67  84 CALM      29.95F
HOPKINSVILLE   MOCLDY    72  68  87 SW5       29.97S
BOWLING GREEN  CLOUDY    71  68  90 CALM      29.98S
GLASGOW        CLOUDY   N/A N/A N/A CALM      29.98S
$$

KYZ024-025-028>034-038-045-046-053-190800-
NORTH CENTRAL KENTUCKY

CITY           SKY/WX    TMP DP  RH WIND       PRES   REMARKS
LOUISVILLE/SDF CLOUDY    75  66  73 SW5       29.94F
LOUISVILLE/LOU CLOUDY    72  69  90 CALM      29.96S
FORT KNOX      CLOUDY    68  66  92 CALM      29.95F
$$

KYZ035>037-039>044-047>052-055>060-089>105-190800-
NORTHEAST KENTUCKY

CITY           SKY/WX    TMP DP  RH WIND       PRES   REMARKS
LEXINGTON      CLEAR     68  63  84 CALM      29.98F
COVINGTON      CLOUDY    67  67 100 SW3       29.95F
FRANKFORT      PTCLDY    68  63  84 CALM      29.96F
$$

KYZ054-064>069-076>088-106>120-190800-
SOUTHEAST KENTUCKY

CITY           SKY/WX    TMP DP  RH WIND       PRES   REMARKS
JACKSON        CLEAR     67  64  90 CALM      30.00S
LONDON         CLEAR     65  63  93 CALM      30.00S
SOMERSET       NOT AVBL
MIDDLESBORO    CLEAR     64  64 100 CALM      30.03R
MONTICELLO     SUNNY     63  63 100 W10       30.02R FOG
$$




USA.gov is the U.S. government's official web portal to all federal, state and local government web resources and services.